N9EA Weather Reports


Display with metric or nautical units.
time (UTC)temp
F
wind
direction
speed
MPH
gust
MPH
rain 1hr
in
rain 24hr
in
rain mn
in
humidity
%
barometer
mb
20260504130349 59 220 3.0 3.0 0.00 0.00 0.00 60 1002.6
20260504120311 54 244 2.0 3.0 0.00 0.00 0.00 64 1002.8
20260504110236 52 255 0.0 1.0 0.00 0.00 0.00 66 1002.5
20260504100159 52 260 1.0 2.0 0.00 0.00 0.00 66 1003.2
20260504090122 52 284 0.0 0.0 0.00 0.00 0.00 65 1003.9
20260504081552 53 252 1.0 1.0 0.00 0.00 0.00 64 1004.0
20260504081048 53 183 0.0 0.0 0.00 0.00 0.00 64 1004.0
20260504080545 53 252 0.0 0.0 0.00 0.00 0.00 63 1004.2
20260504050352 59 212 0.0 1.0 0.00 0.00 0.00 56 1005.7
20260504045849 60 193 0.0 0.0 0.00 0.00 0.00 55 1005.7
20260504045344 60 200 1.0 1.0 0.00 0.00 0.00 55 1005.6
20260504044841 60 231 1.0 1.0 0.00 0.00 0.00 55 1005.6
20260504044338 60 160 0.0 0.0 0.00 0.00 0.00 54 1005.7
20260504043836 60 220 0.0 0.0 0.00 0.00 0.00 54 1005.7
20260504043332 60 219 0.0 0.0 0.00 0.00 0.00 54 1005.7
20260504042830 61 257 0.0 1.0 0.00 0.00 0.00 54 1005.8
20260504042326 61 196 0.0 0.0 0.00 0.00 0.00 53 1005.9
20260504041822 61 217 0.0 1.0 0.00 0.00 0.00 53 1005.8
20260504041318 61 162 0.0 1.0 0.00 0.00 0.00 53 1005.7
20260504040815 62 264 1.0 1.0 0.00 0.00 0.00 52 1005.6
20260504040313 62 233 1.0 1.0 0.00 0.00 0.00 52 1005.7
20260504035809 62 226 3.0 4.0 0.00 0.00 0.00 52 1005.9
20260504035306 62 234 1.0 1.0 0.00 0.00 0.00 52 1005.8
20260504034803 62 158 1.0 2.0 0.00 0.00 0.00 52 1005.8
20260504034301 62 207 2.0 2.0 0.00 0.00 0.00 51 1005.7
20260504033758 62 255 1.0 1.0 0.00 0.00 0.00 51 1005.9
20260504033255 62 187 1.0 1.0 0.00 0.00 0.00 51 1005.9
20260504032752 63 218 1.0 1.0 0.00 0.00 0.00 51 1005.9
20260504032249 63 273 1.0 2.0 0.00 0.00 0.00 50 1005.8
20260504031745 63 248 1.0 1.0 0.00 0.00 0.00 49 1006.0
20260504031243 63 189 1.0 2.0 0.00 0.00 0.00 49 1005.9
20260504030738 64 183 1.0 1.0 0.00 0.00 0.00 49 1005.9
20260504030236 64 225 1.0 1.0 0.00 0.00 0.00 48 1005.9
20260504025732 64 261 2.0 3.0 0.00 0.00 0.00 48 1005.8
20260504025229 64 203 1.0 2.0 0.00 0.00 0.00 48 1005.8
20260504024726 64 285 2.0 2.0 0.00 0.00 0.00 48 1005.7
20260504024223 65 279 3.0 4.0 0.00 0.00 0.00 47 1006.0
20260504023720 65 290 2.0 3.0 0.00 0.00 0.00 47 1005.6
20260504023216 65 261 2.0 2.0 0.00 0.00 0.00 47 1005.4
20260504022712 65 313 3.0 3.0 0.00 0.00 0.00 46 1005.6
20260504022208 65 288 1.0 2.0 0.00 0.00 0.00 47 1005.6
20260504021706 65 230 2.0 2.0 0.00 0.00 0.00 47 1005.5
20260504021203 65 248 2.0 3.0 0.00 0.00 0.00 47 1005.6
20260504020659 66 267 1.0 2.0 0.00 0.00 0.00 47 1005.4
20260504020155 66 194 1.0 2.0 0.00 0.00 0.00 46 1005.5
20260504015652 66 247 1.0 1.0 0.00 0.00 0.00 46 1005.4
20260504015148 66 254 1.0 2.0 0.00 0.00 0.00 46 1005.4
20260504014644 66 260 0.0 0.0 0.00 0.00 0.00 46 1005.4
20260504014141 67 216 1.0 2.0 0.00 0.00 0.00 45 1005.2
20260504013634 67 285 2.0 3.0 0.00 0.00 0.00 45 1005.3
20260504013131 67 295 2.0 3.0 0.00 0.00 0.00 45 1005.3
20260504012628 68 223 1.0 1.0 0.00 0.00 0.00 44 1005.2
20260504012126 68 210 2.0 2.0 0.00 0.00 0.00 44 1005.0
20260504011622 68 263 2.0 2.0 0.00 0.00 0.00 44 1005.0
20260504011118 68 238 3.0 3.0 0.00 0.00 0.00 44 1004.7
20260504010614 68 305 2.0 3.0 0.00 0.00 0.00 43 1004.9
20260504010110 69 300 2.0 4.0 0.00 0.00 0.00 43 1004.9
20260504005607 69 327 3.0 6.0 0.00 0.00 0.00 43 1005.1
20260504005104 69 317 3.0 3.0 0.00 0.00 0.00 43 1004.9
20260504004602 69 262 1.0 2.0 0.00 0.00 0.00 43 1005.0
20260504004059 69 305 2.0 3.0 0.00 0.00 0.00 43 1004.7
20260504003555 70 256 2.0 2.0 0.00 0.00 0.00 43 1004.8
20260504003052 70 226 3.0 3.0 0.00 0.00 0.00 42 1004.9
20260504002548 70 264 2.0 2.0 0.00 0.00 0.00 42 1004.7
20260504002046 70 205 2.0 2.0 0.00 0.00 0.00 42 1004.8
20260504001544 71 264 1.0 3.0 0.00 0.00 0.00 42 1004.8
20260504001039 71 275 2.0 4.0 0.00 0.00 0.00 42 1004.7
20260504000537 71 258 2.0 2.0 0.00 0.00 0.00 42 1004.8
20260504000034 71 263 3.0 4.0 0.00 0.00 0.00 42 1004.7
20260503235533 71 328 2.0 3.0 0.00 0.00 0.00 42 1004.8
20260503235029 71 275 2.0 4.0 0.00 0.00 0.00 42 1004.8
20260503234527 72 140 1.0 2.0 0.00 0.00 0.00 42 1004.9
20260503234025 72 158 0.0 1.0 0.00 0.00 0.00 42 1005.1
20260503233521 72 209 3.0 3.0 0.00 0.00 0.00 42 1005.1
20260503233017 72 215 2.0 3.0 0.00 0.00 0.00 41 1004.9
20260503232514 72 264 1.0 1.0 0.00 0.00 0.00 42 1005.0
20260503232012 72 176 2.0 2.0 0.00 0.00 0.00 41 1004.9
20260503231509 73 322 2.0 2.0 0.00 0.00 0.00 42 1005.0
20260503231006 72 290 3.0 3.0 0.00 0.00 0.00 42 1005.1
20260503230503 72 293 5.0 6.0 0.00 0.00 0.00 42 1005.3
20260503230000 72 277 4.0 6.0 0.00 0.00 0.00 42 1005.1
20260503225456 72 287 5.0 7.0 0.00 0.00 0.00 41 1005.1
20260503224952 73 338 5.0 8.0 0.00 0.00 0.00 41 1005.0
20260503224449 73 243 2.0 2.0 0.00 0.00 0.00 41 1005.1
20260503223947 73 194 5.0 7.0 0.00 0.00 0.00 40 1005.3
20260503223445 73 254 4.0 6.0 0.00 0.00 0.00 41 1005.2
20260503222940 72 284 3.0 3.0 0.00 0.00 0.00 41 1005.1
20260503222439 72 288 5.0 7.0 0.00 0.00 0.00 42 1005.0
20260503221937 72 316 5.0 7.0 0.00 0.00 0.00 42 1005.2
20260503221435 71 270 6.0 7.0 0.00 0.00 0.00 43 1005.1
20260503220931 72 333 2.0 3.0 0.00 0.00 0.00 42 1005.0
20260503220427 72 286 9.0 11.0 0.00 0.00 0.00 41 1005.2
20260503215925 72 194 2.0 4.0 0.00 0.00 0.00 40 1005.1
20260503215421 72 261 1.0 2.0 0.00 0.00 0.00 40 1005.0
20260503214919 72 345 3.0 4.0 0.00 0.00 0.00 41 1005.2
20260503214416 72 311 4.0 6.0 0.00 0.00 0.00 40 1005.3
20260503213914 72 245 4.0 6.0 0.00 0.00 0.00 40 1005.3
20260503213412 73 262 4.0 6.0 0.00 0.00 0.00 40 1005.4
20260503212908 73 266 3.0 3.0 0.00 0.00 0.00 40 1005.3
20260503212406 73 357 3.0 3.0 0.00 0.00 0.00 40 1005.3
20260503211903 73 275 5.0 7.0 0.00 0.00 0.00 38 1005.4
20260503211359 73 339 3.0 4.0 0.00 0.00 0.00 40 1005.4
20260503210854 73 299 2.0 3.0 0.00 0.00 0.00 38 1005.7
20260503210352 73 2 4.0 4.0 0.00 0.00 0.00 38 1005.6
20260503205847 73 12 2.0 3.0 0.00 0.00 0.00 38 1005.5
20260503205344 73 339 3.0 3.0 0.00 0.00 0.00 39 1005.7
20260503204840 72 253 3.0 4.0 0.00 0.00 0.00 39 1005.8
20260503204338 73 287 2.0 4.0 0.00 0.00 0.00 39 1006.0
20260503203835 73 329 4.0 4.0 0.00 0.00 0.00 40 1005.7
20260503203332 73 253 1.0 2.0 0.00 0.00 0.00 41 1005.9
20260503202829 73 260 2.0 3.0 0.00 0.00 0.00 40 1006.0
20260503202327 73 270 1.0 1.0 0.00 0.00 0.00 40 1006.1
20260503201825 72 335 2.0 3.0 0.00 0.00 0.00 41 1005.9
20260503201321 72 297 4.0 4.0 0.00 0.00 0.00 40 1006.0
20260503200819 71 293 1.0 1.0 0.00 0.00 0.00 41 1006.0
20260503200315 72 301 4.0 6.0 0.00 0.00 0.00 40 1006.2
20260503195813 72 316 2.0 4.0 0.00 0.00 0.00 40 1006.3
20260503195309 71 95 3.0 7.0 0.00 0.00 0.00 41 1006.2
20260503194807 72 288 3.0 3.0 0.00 0.00 0.00 41 1006.3
20260503194303 70 171 2.0 3.0 0.00 0.00 0.00 42 1006.4
20260503193759 71 258 7.0 10.0 0.00 0.00 0.00 40 1006.6
20260503193255 71 287 5.0 8.0 0.00 0.00 0.00 41 1006.4
20260503192751 70 56 4.0 6.0 0.00 0.00 0.00 42 1006.7
20260503192246 71 317 2.0 2.0 0.00 0.00 0.00 43 1006.7
20260503191743 70 288 3.0 3.0 0.00 0.00 0.00 43 1006.6
20260503191240 70 288 5.0 7.0 0.00 0.00 0.00 42 1006.8
20260503190737 70 274 4.0 4.0 0.00 0.00 0.00 43 1006.7
20260503190233 69 351 5.0 7.0 0.00 0.00 0.00 43 1007.0
20260503185731 69 275 5.0 6.0 0.00 0.00 0.00 43 1007.0
20260503185226 69 337 6.0 8.0 0.00 0.00 0.00 43 1007.0
20260503184721 70 289 5.0 7.0 0.00 0.00 0.00 43 1007.2
20260503184217 69 19 3.0 6.0 0.00 0.00 0.00 43 1007.1
20260503183714 68 214 4.0 6.0 0.00 0.00 0.00 43 1007.0
20260503183206 69 233 7.0 8.0 0.00 0.00 0.00 43 1007.1
20260503182704 68 327 1.0 2.0 0.00 0.00 0.00 44 1007.2
20260503182203 68 258 3.0 6.0 0.00 0.00 0.00 43 1007.1
20260503181658 69 269 6.0 11.0 0.00 0.00 0.00 43 1007.2
20260503181155 68 187 3.0 4.0 0.00 0.00 0.00 43 1007.3
20260503180652 66 220 2.0 3.0 0.00 0.00 0.00 46 1007.7
20260503180151 67 217 5.0 6.0 0.00 0.00 0.00 44 1007.6
20260503175647 66 272 7.0 10.0 0.00 0.00 0.00 44 1007.8
20260503175145 67 284 5.0 8.0 0.00 0.00 0.00 44 1007.8